EW0538 Weather Reports


Display with metric or nautical units.
time (UTC)temp
F
wind
direction
speed
MPH
gust
MPH
rain 1hr
in
rain 24hr
in
rain mn
in
humidity
%
barometer
mb
20260507080708 27 134 0.0 0.0 0.00 0.02 0.00 88 1022.8
20260507075657 28 134 0.0 0.0 0.00 0.02 0.00 86 1022.8
20260507074656 28 134 0.0 0.0 0.00 0.02 0.00 85 1022.8
20260507072453 29 134 0.0 0.0 0.00 0.02 0.00 83 1022.8
20260507071505 29 131 0.0 0.0 0.00 0.02 0.00 85 1022.6
20260507070450 29 61 0.0 0.0 0.00 0.02 0.00 87 1022.5
20260507064313 30 319 0.0 0.0 0.00 0.02 0.00 84 1022.5
20260507062207 32 319 0.0 0.0 0.00 0.02 0.00 77 1022.2
20260507055021 31 39 0.0 0.0 0.00 0.02 0.02 81 1021.7
20260507053945 31 294 0.0 0.0 0.00 0.02 0.02 83 1021.4
20260507052951 31 294 0.0 0.0 0.00 0.02 0.02 80 1021.3
20260507050923 32 294 0.0 0.0 0.00 0.02 0.02 78 1021.5
20260507045859 32 308 0.0 0.0 0.00 0.02 0.02 77 1021.2
20260507044834 33 307 0.0 0.0 0.00 0.02 0.02 75 1021.2
20260507042727 34 240 0.0 0.0 0.00 0.02 0.02 74 1020.9
20260507041722 35 240 0.0 0.0 0.00 0.02 0.02 71 1020.6
20260507040730 36 328 0.0 0.0 0.00 0.02 0.02 70 1020.5
20260507035718 36 122 0.0 2.0 0.00 0.02 0.02 71 1020.2
20260507034717 36 192 0.0 1.0 0.00 0.02 0.02 69 1020.0
20260507033710 37 121 0.0 2.0 0.00 0.02 0.02 68 1019.8
20260507032701 37 145 0.0 3.0 0.00 0.02 0.02 66 1019.4
20260507031705 37 164 0.0 2.0 0.00 0.02 0.02 67 1018.9
20260507030713 38 145 0.0 0.0 0.00 0.02 0.02 65 1018.7
20260507024531 41 212 0.0 0.0 0.00 0.02 0.02 55 1018.1
20260507023533 42 213 0.0 0.0 0.00 0.02 0.02 50 1018.0
20260507022523 44 252 0.0 0.0 0.00 0.02 0.02 46 1017.6
20260507021539 45 243 0.0 2.0 0.00 0.02 0.02 42 1017.4
20260507020527 46 290 0.0 5.0 0.00 0.02 0.02 39 1017.1
20260507015454 47 342 0.0 3.0 0.00 0.02 0.02 37 1016.9
20260507014451 48 340 0.0 5.0 0.00 0.02 0.02 35 1016.8
20260507013453 50 278 1.0 5.0 0.00 0.02 0.02 32 1016.5
20260507012450 51 24 0.0 4.0 0.00 0.02 0.02 30 1016.4
20260507011448 51 325 1.0 8.0 0.00 0.02 0.02 30 1016.3
20260507010431 51 4 2.0 8.0 0.00 0.02 0.02 30 1016.0
20260507005450 52 9 1.0 7.0 0.00 0.02 0.02 31 1015.8
20260507004446 52 25 2.0 9.0 0.00 0.02 0.02 30 1015.7
20260507003429 52 302 2.0 9.0 0.00 0.02 0.02 30 1015.5
20260507001353 52 4 3.0 14.0 0.00 0.02 0.02 31 1015.2
20260507000343 52 16 4.0 14.0 0.00 0.02 0.02 31 1015.2
20260506235311 53 14 2.0 11.0 0.00 0.02 0.02 32 1015.0
20260506234314 53 359 5.0 11.0 0.00 0.02 0.02 31 1014.9
20260506233324 54 25 2.0 10.0 0.00 0.02 0.02 30 1014.6
20260506232337 53 304 3.0 10.0 0.00 0.02 0.02 31 1014.5
20260506231317 53 341 3.0 11.0 0.00 0.02 0.02 32 1014.3
20260506230332 54 274 3.0 11.0 0.00 0.02 0.02 31 1014.2
20260506225305 53 354 3.0 9.0 0.00 0.02 0.02 31 1013.9
20260506224233 54 328 2.0 14.0 0.00 0.03 0.02 32 1013.9
20260506223213 52 21 5.0 14.0 0.00 0.03 0.02 32 1013.8
20260506221119 52 324 1.0 6.0 0.00 0.03 0.02 32 1013.9
20260506220052 52 304 3.0 8.0 0.00 0.03 0.02 32 1013.7
20260506215036 51 353 0.0 5.0 0.00 0.03 0.02 34 1013.7
20260506214045 51 306 0.0 3.0 0.00 0.03 0.02 39 1013.7
20260506211853 51 240 0.0 8.0 0.00 0.03 0.02 37 1013.8
20260506210856 51 266 1.0 8.0 0.00 0.03 0.02 36 1013.8
20260506205848 52 309 1.0 4.0 0.00 0.03 0.02 39 1013.7
20260506204910 52 101 0.0 7.0 0.00 0.03 0.02 44 1013.6
20260506203901 48 169 2.0 7.0 0.00 0.03 0.02 48 1013.6
20260506201739 46 297 1.0 4.0 0.00 0.03 0.02 54 1013.5
20260506200721 46 250 0.0 5.0 0.00 0.03 0.02 56 1013.5
20260506195704 46 100 0.0 5.0 0.00 0.03 0.02 60 1013.3
20260506194637 45 44 2.0 7.0 0.00 0.03 0.02 62 1013.2
20260506193648 44 120 1.0 7.0 0.00 0.03 0.02 64 1013.3
20260506192712 43 50 1.0 7.0 0.00 0.03 0.02 65 1013.3
20260506191734 44 190 2.0 7.0 0.00 0.03 0.02 63 1013.2
20260506190722 46 315 2.0 9.0 0.00 0.03 0.02 62 1012.8
20260506184628 49 351 3.0 8.0 0.00 0.03 0.02 47 1012.6
20260506183602 50 16 2.0 7.0 0.00 0.03 0.02 49 1012.3
20260506182618 49 319 3.0 12.0 0.00 0.03 0.02 50 1012.2
20260506181604 48 37 3.0 12.0 0.00 0.03 0.02 52 1012.1
20260506180531 46 33 4.0 11.0 0.00 0.03 0.02 54 1012.0
20260506175533 45 353 3.0 10.0 0.00 0.03 0.02 57 1012.0
20260506174557 45 358 4.0 9.0 0.00 0.03 0.02 58 1011.9
20260506173539 45 15 3.0 11.0 0.00 0.03 0.02 60 1011.7
20260506171409 45 353 4.0 13.0 0.00 0.03 0.02 62 1011.3
20260506170354 46 47 4.0 13.0 0.00 0.03 0.02 60 1011.3
20260506165333 45 340 4.0 10.0 0.00 0.03 0.02 63 1011.0
20260506163242 43 56 3.0 10.0 0.00 0.03 0.02 71 1010.8
20260506162238 41 29 2.0 10.0 0.00 0.03 0.02 76 1010.6
20260506153953 39 319 4.0 10.0 0.00 0.03 0.02 86 1010.1
20260506152918 38 250 2.0 8.0 0.00 0.03 0.02 89 1009.8
20260506151845 38 49 1.0 6.0 0.00 0.03 0.02 91 1009.8
20260506150823 38 339 0.0 1.0 0.00 0.03 0.02 94 1009.7
20260506145847 37 322 0.0 0.0 0.00 0.03 0.02 95 1009.6
20260506144821 36 343 0.0 3.0 0.00 0.03 0.02 95 1009.5
20260506143821 36 343 1.0 4.0 0.04 0.03 0.02 96 1009.3
20260506142749 35 347 0.0 3.0 0.00 0.02 0.01 96 1009.2
20260506141723 35 357 0.0 3.0 0.00 0.01 0.00 95 1008.6
20260506125539 36 186 0.0 6.0 0.00 0.01 0.00 73 1007.7
20260506123347 37 165 1.0 3.0 0.00 0.01 0.00 71 1006.4
20260506122410 38 219 2.0 10.0 0.00 0.01 0.00 70 1006.3
20260506121358 39 172 0.0 6.0 0.00 0.01 0.00 70 1005.7
20260506115256 39 89 0.0 0.0 0.00 0.01 0.00 68 1004.9
20260506114249 39 88 0.0 0.0 0.00 0.01 0.00 68 1004.6
20260506113254 39 89 0.0 0.0 0.00 0.01 0.00 68 1004.5
20260506112220 39 88 0.0 0.0 0.00 0.01 0.00 67 1004.3
20260506090659 40 135 0.0 0.0 0.00 0.01 0.00 81 1005.0
20260506084527 42 342 0.0 0.0 0.00 0.01 0.00 80 1005.3
20260506083527 41 342 0.0 0.0 0.00 0.01 0.00 81 1005.3
20260506082523 41 343 0.0 0.0 0.00 0.01 0.00 81 1005.2